Flag for Albania Weather past 2 weeks in Durrës, Albania

55 °F

Light rain. Passing clouds.

Feels Like: 55 °F
Forecast: 57 / 61 °F
Wind: 3 mph from East

Location: Tirana Airport

Current Time: Nov 25, 2015 at 7:33:21 PM

Latest Report: Nov 25, 2015 at 7:20 PM

Visibility: N/A

Pressure: 29.53 "Hg

Humidity: 82%

Dew point: 50 °F

Location of DurrësLocation

Historic Weather in Durrës — Graph


Durrës temperature yesterday

Maximum temperature yesterday: 64 °F (at 12:20 PM)
Minimum temperature yesterday: 52 °F (at 12:20 AM)
Average temperature yesterday: 57 °F

Past Weeks' High & Low Weather Summary

High75 °F (Nov 11, 12:50 PM)100% (Nov 14, 8:20 AM)30.36 "Hg (Nov 14, 8:20 AM)
Low43 °F (Nov 16, 5:20 AM)41% (Nov 11, 1:50 PM)29.45 "Hg (Nov 21, 11:20 PM)
Average58 °F80%30.06 "Hg
* Reported Nov 10 6:20 PM — Nov 25 6:20 PM, Durrës, Weather by CustomWeather, © 2015

Note: Actual official high and low records may vary slightly from our data, if they occured in-between our weather recording intervals... More about our weather records


Durrës weather history for previous 24 hours

Time TempWeatherWind HumidityBarometerVisibility
6:20 PM
Wed, Nov 25
55 °FPassing clouds.2 mph88%29.56 "HgN/A
5:50 PM55 °FPassing clouds.No wind88%29.56 "HgN/A
5:20 PM55 °FMostly cloudy.2 mph88%29.56 "HgN/A
4:50 PM55 °FMostly cloudy.2 mph88%29.53 "HgN/A
4:20 PM57 °FMostly cloudy.2 mph77%29.56 "HgN/A
3:50 PM57 °FBroken clouds.5 mph82%29.56 "HgN/A
3:20 PM57 °FPartly sunny.2 mph82%29.56 "HgN/A
2:50 PM55 °FBroken clouds.No wind88%29.56 "HgN/A
2:20 PM55 °FMore clouds than sun.7 mph88%29.56 "HgN/A
1:50 PM55 °FMore clouds than sun.7 mph88%29.56 "HgN/A
1:20 PM55 °FMore clouds than sun.5 mph94%29.59 "HgN/A
12:50 PM55 °FLight rain. More clouds than sun.8 mph88%29.65 "Hg5 mi
12:20 PM55 °FRain. More clouds than sun.3 mph88%29.68 "Hg4 mi
11:50 AM55 °FLight rain. More clouds than sun.3 mph88%29.71 "HgN/A
11:20 AM55 °FRain. More clouds than sun.2 mph94%29.71 "HgN/A
10:50 AM55 °FLight rain. More clouds than sun.2 mph88%29.74 "HgN/A
10:20 AM55 °FLight rain. More clouds than sun.3 mph82%29.77 "HgN/A
9:50 AM55 °FLight rain. More clouds than sun.5 mph82%29.77 "HgN/A
9:20 AM57 °FLight rain. Mostly cloudy.6 mph77%29.80 "HgN/A
8:50 AM55 °FLight rain. Mostly cloudy.6 mph82%29.83 "HgN/A
8:20 AM55 °FLight rain. More clouds than sun.8 mph82%29.83 "HgN/A
7:50 AM55 °FLight rain. Mostly cloudy.12 mph82%29.83 "HgN/A
7:20 AM55 °FLight rain. Mostly cloudy.10 mph82%29.83 "HgN/A
6:50 AM55 °FCloudy.6 mph82%29.83 "HgN/A
6:20 AM55 °FOvercast.8 mph82%29.86 "HgN/A
5:50 AM55 °FPartly cloudy.7 mph82%29.86 "HgN/A
5:20 AM55 °FLight rain. Mostly cloudy.2 mph82%29.86 "HgN/A
4:20 AM55 °FMostly cloudy.3 mph82%29.89 "HgN/A
3:50 AM55 °FMostly cloudy.5 mph82%29.89 "HgN/A
3:20 AM55 °FMostly cloudy.3 mph82%29.89 "HgN/A
2:50 AM55 °FMostly cloudy.7 mph82%29.92 "HgN/A
2:20 AM55 °FLight rain. Mostly cloudy.7 mph82%29.92 "HgN/A
1:20 AM55 °FLight rain. Mostly cloudy.10 mph82%29.95 "HgN/A
12:50 AM55 °FLight rain. Mostly cloudy.10 mph88%29.98 "HgN/A
12:20 AM55 °FRain. Mostly cloudy.12 mph88%30.01 "HgN/A
11:50 PM
Tue, Nov 24
55 °FThunderstorms. Mostly cloudy.12 mph94%30.01 "HgN/A
11:20 PM55 °FRain. Mostly cloudy.8 mph94%30.04 "Hg4 mi
10:50 PM57 °FThunderstorms. Mostly cloudy.10 mph88%30.01 "HgN/A
10:20 PM55 °FLight rain. Partly cloudy.7 mph94%30.01 "Hg5 mi
9:50 PM55 °FLight rain. Partly cloudy.3 mph94%30.01 "Hg5 mi
9:20 PM55 °FLight rain. Partly cloudy.No wind88%30.01 "Hg4 mi
8:50 PM55 °FLight rain. Partly cloudy.No wind94%30.04 "Hg4 mi
8:20 PM55 °FLight rain. Partly cloudy.3 mph94%30.04 "Hg4 mi
7:50 PM55 °FMostly cloudy.6 mph88%30.01 "HgN/A
7:20 PM54 °FPartly cloudy.3 mph94%30.04 "HgN/A
Weather by CustomWeather, © 2015

See weather overviewHow to use our weather pages